Find Starlink 5651

NORAD ID: 55357 Int'l Des: 2023-013 Owner: SPXS Country: US Constellation: starlink operational
LEOCIRCULAR

リアルタイム位置

3D地球を読み込み中...

Starlink 5651について

説明を読み込み中...

次回通過

Passes for default location (London). Set your location on the main map for personalized predictions.

高度履歴

Loading altitude history...

軌道要素

1 55357U 23013AC 26106.67267926 .00003608 00000-0 14403-3 0 9996
2 55357 43.0045 88.7849 0001279 249.9902 110.0812 15.26765493177489
Epoch: Apr 16, 2026 • Age: 9 hours

現在のステータス

高度 485.0 km
速度 7.63 km/s
衛星直下点 9.00°N, 133.26°W
打ち上げ日 Jan 26, 2023
運用期間 3.2 years
タイプ internet

技術仕様

分類 Payload
質量 305.00 kg
乾燥質量 290.00 kg
総質量 305.00 kg
長さ 0.20 m
直径 2.80 m
スパン 9.00 m
形状 Box + pan
製造者 SPXS
バスタイプ Starlink
フェーズステータス In Orbit
所有者/国 SPXS/US

Most Searched